Location: Krakow
(50.0614°N, 19.9383°E)
Time: 19:19:25
(UTC+01:00)

ISS - Visible Passes

Search period start: 14 December 2018 00:00
Search period end: 24 December 2018 00:00
Orbit: 401 x 408 km, 51.6° (Epoch: 15 December)

Date Brightness Start Highest point End Pass type
(mag) Time Alt. Az. Time Alt. Az. Time Alt. Az.
14 Dec -0.1 17:17:39 10° SW 17:17:55 10° SW 17:18:10 10° SW visible
15 Dec -0.7 16:23:51 10° W 16:26:01 17° SW 16:28:11 10° S visible
23 Dec -0.4 06:14:47 10° SSE 06:16:12 12° SE 06:17:37 10° ESE visible
